Year,Month,Day,Hour,Minute,Value (Times are PST for windspeed in km/hr)
2017,03,15,00,00,2.20
2017,03,15,00,01,1.70
2017,03,15,00,02,2.20
2017,03,15,00,03,2.90
2017,03,15,00,04,2.70
2017,03,15,00,05,4.20
2017,03,15,00,06,2.30
2017,03,15,00,07,3.30
2017,03,15,00,08,2.80
2017,03,15,00,09,3.40
2017,03,15,00,10,4.20
2017,03,15,00,11,4.00
2017,03,15,00,12,4.00
2017,03,15,00,13,4.70
2017,03,15,00,14,3.90
2017,03,15,00,15,4.90
2017,03,15,00,16,5.80
2017,03,15,00,17,6.90
2017,03,15,00,18,6.10
2017,03,15,00,19,5.50
2017,03,15,00,20,4.90
2017,03,15,00,21,6.80
2017,03,15,00,22,6.50
2017,03,15,00,23,7.40
2017,03,15,00,24,7.10
2017,03,15,00,25,10.40
2017,03,15,00,26,7.70
2017,03,15,00,27,6.40
2017,03,15,00,28,5.70
2017,03,15,00,29,6.40
2017,03,15,00,30,6.80
2017,03,15,00,31,7.60
2017,03,15,00,32,5.30
2017,03,15,00,33,5.70
2017,03,15,00,34,5.20
2017,03,15,00,35,4.70
2017,03,15,00,36,4.50
2017,03,15,00,37,3.70
2017,03,15,00,38,3.90
2017,03,15,00,39,4.20
2017,03,15,00,40,3.60
2017,03,15,00,41,3.40
2017,03,15,00,42,3.70
2017,03,15,00,43,4.10
2017,03,15,00,44,3.90
2017,03,15,00,45,4.60
2017,03,15,00,46,4.60
2017,03,15,00,47,3.70
2017,03,15,00,48,3.90
2017,03,15,00,49,5.80
2017,03,15,00,50,3.70
2017,03,15,00,51,4.10
2017,03,15,00,52,6.00
2017,03,15,00,53,6.60
2017,03,15,00,54,4.30
2017,03,15,00,55,5.90
2017,03,15,00,56,5.50
2017,03,15,00,57,4.50
2017,03,15,00,58,4.50
2017,03,15,00,59,6.10
2017,03,15,01,00,5.80
2017,03,15,01,01,4.50
2017,03,15,01,02,2.40
2017,03,15,01,03,2.30
2017,03,15,01,04,2.90
2017,03,15,01,05,0.70
2017,03,15,01,06,1.00
2017,03,15,01,07,2.10
2017,03,15,01,08,0.80
2017,03,15,01,09,1.40
2017,03,15,01,10,0.20
2017,03,15,01,11,0.00
2017,03,15,01,12,1.30
2017,03,15,01,13,2.20
2017,03,15,01,14,0.00
2017,03,15,01,15,1.30
2017,03,15,01,16,2.60
2017,03,15,01,17,3.20
2017,03,15,01,18,2.00
2017,03,15,01,19,3.00
2017,03,15,01,20,3.80
2017,03,15,01,21,2.90
2017,03,15,01,22,1.90
2017,03,15,01,23,3.70
2017,03,15,01,24,2.20
2017,03,15,01,25,1.90
2017,03,15,01,26,2.70
2017,03,15,01,27,0.70
2017,03,15,01,28,0.00
2017,03,15,01,29,0.00
2017,03,15,01,30,0.00
2017,03,15,01,31,0.10
2017,03,15,01,32,1.80
2017,03,15,01,33,1.30
2017,03,15,01,34,1.60
2017,03,15,01,35,4.70
2017,03,15,01,36,4.00
2017,03,15,01,37,4.50
2017,03,15,01,38,3.80
2017,03,15,01,39,3.20
2017,03,15,01,40,3.30
2017,03,15,01,41,2.80
2017,03,15,01,42,0.70
2017,03,15,01,43,0.80
2017,03,15,01,44,3.80
2017,03,15,01,45,3.50
2017,03,15,01,46,2.90
2017,03,15,01,47,3.20
2017,03,15,01,48,2.40
2017,03,15,01,49,3.30
2017,03,15,01,50,1.20
2017,03,15,01,51,2.00
2017,03,15,01,52,2.00
2017,03,15,01,53,2.50
2017,03,15,01,54,2.90
2017,03,15,01,55,1.70
2017,03,15,01,56,3.10
2017,03,15,01,57,3.00
2017,03,15,01,58,2.50
2017,03,15,01,59,2.80
2017,03,15,02,00,2.70
2017,03,15,02,01,4.10
2017,03,15,02,02,3.20
2017,03,15,02,03,2.40
2017,03,15,02,04,1.80
2017,03,15,02,05,0.30
2017,03,15,02,06,1.00
2017,03,15,02,07,0.00
2017,03,15,02,08,0.00
2017,03,15,02,09,0.00
2017,03,15,02,10,2.10
2017,03,15,02,11,2.90
2017,03,15,02,12,3.40
2017,03,15,02,13,3.40
2017,03,15,02,14,2.90
2017,03,15,02,15,4.00
2017,03,15,02,16,5.00
2017,03,15,02,17,4.10
2017,03,15,02,18,4.20
2017,03,15,02,19,7.50
2017,03,15,02,20,5.90
2017,03,15,02,21,3.20
2017,03,15,02,22,3.80
2017,03,15,02,23,4.80
2017,03,15,02,24,2.70
2017,03,15,02,25,4.00
2017,03,15,02,26,3.00
2017,03,15,02,27,5.40
2017,03,15,02,28,4.00
2017,03,15,02,29,4.50
2017,03,15,02,30,3.30
2017,03,15,02,31,4.70
2017,03,15,02,32,4.30
2017,03,15,02,33,2.30
2017,03,15,02,34,0.00
2017,03,15,02,35,2.30
2017,03,15,02,36,1.90
2017,03,15,02,37,3.30
2017,03,15,02,38,2.90
2017,03,15,02,39,3.60
2017,03,15,02,40,6.60
2017,03,15,02,41,3.10
2017,03,15,02,42,1.80
2017,03,15,02,43,0.40
2017,03,15,02,44,1.70
2017,03,15,02,45,2.50
2017,03,15,02,46,1.90
2017,03,15,02,47,8.00
2017,03,15,02,48,6.10
2017,03,15,02,49,7.00
2017,03,15,02,50,3.70
2017,03,15,02,51,9.00
2017,03,15,02,52,7.90
2017,03,15,02,53,6.50
2017,03,15,02,54,5.40
2017,03,15,02,55,4.20
2017,03,15,02,56,2.80
2017,03,15,02,57,3.40
2017,03,15,02,58,5.30
2017,03,15,02,59,1.60
2017,03,15,03,00,2.40
2017,03,15,03,01,2.00
2017,03,15,03,02,2.50
2017,03,15,03,03,3.20
2017,03,15,03,04,6.20
2017,03,15,03,05,5.00
2017,03,15,03,06,4.50
2017,03,15,03,07,3.60
2017,03,15,03,08,3.20
2017,03,15,03,09,4.40
2017,03,15,03,10,3.90
2017,03,15,03,11,5.10
2017,03,15,03,12,5.30
2017,03,15,03,13,5.50
2017,03,15,03,14,6.10
2017,03,15,03,15,4.70
2017,03,15,03,16,5.00
2017,03,15,03,17,1.70
2017,03,15,03,18,2.30
2017,03,15,03,19,4.90
2017,03,15,03,20,10.20
2017,03,15,03,21,7.40
2017,03,15,03,22,3.70
2017,03,15,03,23,3.80
2017,03,15,03,24,4.50
2017,03,15,03,25,3.80
2017,03,15,03,26,4.80
2017,03,15,03,27,2.20
2017,03,15,03,28,2.80
2017,03,15,03,29,2.90
2017,03,15,03,30,4.10
2017,03,15,03,31,5.10
2017,03,15,03,32,6.80
2017,03,15,03,33,7.50
2017,03,15,03,34,5.60
2017,03,15,03,35,5.30
2017,03,15,03,36,2.50
2017,03,15,03,37,2.70
2017,03,15,03,38,4.20
2017,03,15,03,39,2.80
2017,03,15,03,40,1.30
2017,03,15,03,41,4.00
2017,03,15,03,42,5.80
2017,03,15,03,43,7.40
2017,03,15,03,44,5.50
2017,03,15,03,45,5.10
2017,03,15,03,46,4.40
2017,03,15,03,47,4.20
2017,03,15,03,48,2.50
2017,03,15,03,49,1.80
2017,03,15,03,50,2.80
2017,03,15,03,51,2.10
2017,03,15,03,52,2.80
2017,03,15,03,53,4.20
2017,03,15,03,54,2.40
2017,03,15,03,55,4.40
2017,03,15,03,56,4.90
2017,03,15,03,57,3.70
2017,03,15,03,58,5.20
2017,03,15,03,59,4.60
2017,03,15,04,00,3.20
2017,03,15,04,01,3.60
2017,03,15,04,02,3.00
2017,03,15,04,03,2.90
2017,03,15,04,04,4.00
2017,03,15,04,05,2.10
2017,03,15,04,06,2.40
2017,03,15,04,07,6.20
2017,03,15,04,08,4.60
2017,03,15,04,09,3.90
2017,03,15,04,10,3.30
2017,03,15,04,11,3.90
2017,03,15,04,12,4.10
2017,03,15,04,13,3.80
2017,03,15,04,14,2.70
2017,03,15,04,15,3.80
2017,03,15,04,16,2.70
2017,03,15,04,17,0.40
2017,03,15,04,18,2.40
2017,03,15,04,19,2.40
2017,03,15,04,20,2.20
2017,03,15,04,21,3.10
2017,03,15,04,22,3.50
2017,03,15,04,23,3.20
2017,03,15,04,24,5.00
2017,03,15,04,25,2.50
2017,03,15,04,26,3.20
2017,03,15,04,27,1.10
2017,03,15,04,28,3.00
2017,03,15,04,29,3.70
2017,03,15,04,30,2.40
2017,03,15,04,31,5.70
2017,03,15,04,32,4.90
2017,03,15,04,33,7.50
2017,03,15,04,34,7.30
2017,03,15,04,35,5.00
2017,03,15,04,36,6.50
2017,03,15,04,37,4.30
2017,03,15,04,38,5.40
2017,03,15,04,39,6.40
2017,03,15,04,40,6.90
2017,03,15,04,41,6.10
2017,03,15,04,42,5.00
2017,03,15,04,43,4.40
2017,03,15,04,44,6.20
2017,03,15,04,45,5.10
2017,03,15,04,46,3.30
2017,03,15,04,47,5.00
2017,03,15,04,48,5.70
2017,03,15,04,49,4.70
2017,03,15,04,50,4.60
2017,03,15,04,51,3.90
2017,03,15,04,52,4.20
2017,03,15,04,53,3.30
2017,03,15,04,54,2.70
2017,03,15,04,55,3.70
2017,03,15,04,56,6.00
2017,03,15,04,57,2.80
2017,03,15,04,58,1.10
2017,03,15,04,59,3.50
2017,03,15,05,00,2.20
2017,03,15,05,01,2.80
2017,03,15,05,02,2.70
2017,03,15,05,03,1.30
2017,03,15,05,04,3.30
2017,03,15,05,05,4.40
2017,03,15,05,06,3.90
2017,03,15,05,07,3.30
2017,03,15,05,08,3.10
2017,03,15,05,09,2.80
2017,03,15,05,10,2.20
2017,03,15,05,11,1.00
2017,03,15,05,12,1.80
2017,03,15,05,13,2.50
2017,03,15,05,14,2.60
2017,03,15,05,15,1.90
2017,03,15,05,16,0.40
2017,03,15,05,17,0.80
2017,03,15,05,18,0.60
2017,03,15,05,19,0.40
2017,03,15,05,20,3.20
2017,03,15,05,21,1.40
2017,03,15,05,22,3.20
2017,03,15,05,23,2.90
2017,03,15,05,24,3.80
2017,03,15,05,25,2.40
2017,03,15,05,26,1.50
2017,03,15,05,27,2.40
2017,03,15,05,28,0.80
2017,03,15,05,29,2.80
2017,03,15,05,30,2.10
2017,03,15,05,31,1.10
2017,03,15,05,32,2.80
2017,03,15,05,33,3.80
2017,03,15,05,34,2.70
2017,03,15,05,35,1.60
2017,03,15,05,36,0.70
2017,03,15,05,37,3.00
2017,03,15,05,38,2.30
2017,03,15,05,39,1.50
2017,03,15,05,40,2.20
2017,03,15,05,41,1.10
2017,03,15,05,42,1.60
2017,03,15,05,43,1.60
2017,03,15,05,44,3.40
2017,03,15,05,45,3.50
2017,03,15,05,46,3.60
2017,03,15,05,47,2.60
2017,03,15,05,48,1.80
2017,03,15,05,49,1.70
2017,03,15,05,50,0.30
2017,03,15,05,51,0.00
2017,03,15,05,52,0.40
2017,03,15,05,53,0.40
2017,03,15,05,54,1.90
2017,03,15,05,55,1.00
2017,03,15,05,56,0.00
2017,03,15,05,57,0.90
2017,03,15,05,58,2.00
2017,03,15,05,59,0.30
2017,03,15,06,00,0.00
2017,03,15,06,01,0.50
2017,03,15,06,02,2.50
2017,03,15,06,03,1.90
2017,03,15,06,04,1.30
2017,03,15,06,05,1.30
2017,03,15,06,06,1.80
2017,03,15,06,07,2.40
2017,03,15,06,08,1.90
2017,03,15,06,09,1.60
2017,03,15,06,10,1.80
2017,03,15,06,11,1.30
2017,03,15,06,12,0.00
2017,03,15,06,13,0.00
2017,03,15,06,14,0.00
2017,03,15,06,15,0.00
2017,03,15,06,16,0.00
2017,03,15,06,17,0.10
2017,03,15,06,18,0.40
2017,03,15,06,19,2.80
2017,03,15,06,20,2.80
2017,03,15,06,21,2.30
2017,03,15,06,22,1.00
2017,03,15,06,23,0.10
2017,03,15,06,24,0.30
2017,03,15,06,25,0.20
2017,03,15,06,26,0.00
2017,03,15,06,27,0.00
2017,03,15,06,28,0.10
2017,03,15,06,29,1.60
2017,03,15,06,30,2.00
2017,03,15,06,31,2.20
2017,03,15,06,32,2.20
2017,03,15,06,33,2.00
2017,03,15,06,34,1.70
2017,03,15,06,35,2.00
2017,03,15,06,36,0.70
2017,03,15,06,37,0.00
2017,03,15,06,38,1.40
2017,03,15,06,39,3.40
2017,03,15,06,40,3.70
2017,03,15,06,41,4.10
2017,03,15,06,42,4.40
2017,03,15,06,43,4.50
2017,03,15,06,44,5.40
2017,03,15,06,45,3.70
2017,03,15,06,46,0.80
2017,03,15,06,47,2.20
2017,03,15,06,48,3.70
2017,03,15,06,49,2.80
2017,03,15,06,50,3.30
2017,03,15,06,51,3.40
2017,03,15,06,52,2.90
2017,03,15,06,53,2.70
2017,03,15,06,54,3.20
2017,03,15,06,55,0.70
2017,03,15,06,56,0.00
2017,03,15,06,57,2.40
2017,03,15,06,58,1.80
2017,03,15,06,59,0.00
2017,03,15,07,00,1.10
2017,03,15,07,01,2.50
2017,03,15,07,02,1.60
2017,03,15,07,03,0.10
2017,03,15,07,04,0.00
2017,03,15,07,05,0.00
2017,03,15,07,06,0.80
2017,03,15,07,07,2.20
2017,03,15,07,08,1.20
2017,03,15,07,09,1.10
2017,03,15,07,10,1.40
2017,03,15,07,11,1.70
2017,03,15,07,12,0.10
2017,03,15,07,13,0.00
2017,03,15,07,14,0.00
2017,03,15,07,15,0.00
2017,03,15,07,16,1.70
2017,03,15,07,17,3.10
2017,03,15,07,18,2.50
2017,03,15,07,19,2.00
2017,03,15,07,20,0.90
2017,03,15,07,21,1.20
2017,03,15,07,22,1.10
2017,03,15,07,23,3.00
2017,03,15,07,24,3.00
2017,03,15,07,25,2.20
2017,03,15,07,26,3.90
2017,03,15,07,27,1.60
2017,03,15,07,28,0.30
2017,03,15,07,29,0.00
2017,03,15,07,30,0.00
2017,03,15,07,31,0.00
2017,03,15,07,32,0.00
2017,03,15,07,33,0.00
2017,03,15,07,34,1.70
2017,03,15,07,35,2.00
2017,03,15,07,36,1.90
2017,03,15,07,37,1.50
2017,03,15,07,38,1.90
2017,03,15,07,39,1.60
2017,03,15,07,40,2.40
2017,03,15,07,41,1.50
2017,03,15,07,42,1.50
2017,03,15,07,43,1.60
2017,03,15,07,44,1.90
2017,03,15,07,45,1.90
2017,03,15,07,46,1.80
2017,03,15,07,47,1.30
2017,03,15,07,48,1.60
2017,03,15,07,49,1.60
2017,03,15,07,50,0.10
2017,03,15,07,51,0.00
2017,03,15,07,52,0.00
2017,03,15,07,53,0.00
2017,03,15,07,54,0.00
2017,03,15,07,55,0.00
2017,03,15,07,56,0.00
2017,03,15,07,57,0.10
2017,03,15,07,58,0.10
2017,03,15,07,59,0.00
2017,03,15,08,00,1.70
2017,03,15,08,01,2.40
2017,03,15,08,02,1.90
2017,03,15,08,03,2.20
2017,03,15,08,04,1.60
2017,03,15,08,05,1.80
2017,03,15,08,06,2.30
2017,03,15,08,07,1.40
2017,03,15,08,08,2.10
2017,03,15,08,09,0.70
2017,03,15,08,10,0.90
2017,03,15,08,11,0.10
2017,03,15,08,12,0.10
2017,03,15,08,13,0.50
2017,03,15,08,14,1.40
2017,03,15,08,15,1.80
2017,03,15,08,16,1.80
2017,03,15,08,17,2.80
2017,03,15,08,18,2.80
2017,03,15,08,19,0.10
2017,03,15,08,20,2.60
2017,03,15,08,21,0.60
2017,03,15,08,22,1.40
2017,03,15,08,23,1.90
2017,03,15,08,24,0.90
2017,03,15,08,25,1.00
2017,03,15,08,26,1.40
2017,03,15,08,27,3.30
2017,03,15,08,28,3.20
2017,03,15,08,29,5.90
2017,03,15,08,30,2.30
2017,03,15,08,31,4.30
2017,03,15,08,32,4.40
2017,03,15,08,33,3.90
2017,03,15,08,34,3.20
2017,03,15,08,35,2.50
2017,03,15,08,36,2.90
2017,03,15,08,37,2.40
2017,03,15,08,38,2.40
2017,03,15,08,39,1.80
2017,03,15,08,40,2.80
2017,03,15,08,41,2.10
2017,03,15,08,42,1.90
2017,03,15,08,43,1.10
2017,03,15,08,44,0.10
2017,03,15,08,45,1.20
2017,03,15,08,46,1.80
2017,03,15,08,47,2.40
2017,03,15,08,48,1.30
2017,03,15,08,49,2.20
2017,03,15,08,50,3.10
2017,03,15,08,51,3.20
2017,03,15,08,52,3.70
2017,03,15,08,53,3.20
2017,03,15,08,54,2.20
2017,03,15,08,55,1.70
2017,03,15,08,56,1.80
2017,03,15,08,57,0.40
2017,03,15,08,58,0.00
2017,03,15,08,59,0.00
2017,03,15,09,00,0.00
2017,03,15,09,01,1.50
2017,03,15,09,02,0.90
2017,03,15,09,03,0.00
2017,03,15,09,04,0.90
2017,03,15,09,05,0.40
2017,03,15,09,06,0.00
2017,03,15,09,07,0.00
2017,03,15,09,08,0.00
2017,03,15,09,09,0.00
2017,03,15,09,10,0.00
2017,03,15,09,11,0.00
2017,03,15,09,12,0.00
2017,03,15,09,13,0.40
2017,03,15,09,14,1.50
2017,03,15,09,15,1.10
2017,03,15,09,16,0.90
2017,03,15,09,17,0.10
2017,03,15,09,18,0.00
2017,03,15,09,19,0.00
2017,03,15,09,20,0.00
2017,03,15,09,21,0.00
2017,03,15,09,22,0.10
2017,03,15,09,23,2.00
2017,03,15,09,24,1.80
2017,03,15,09,25,0.80
2017,03,15,09,26,1.70
2017,03,15,09,27,2.30
2017,03,15,09,28,2.00
2017,03,15,09,29,2.50
2017,03,15,09,30,1.50
2017,03,15,09,31,1.30
2017,03,15,09,32,1.90
2017,03,15,09,33,2.20
2017,03,15,09,34,0.00
2017,03,15,09,35,0.00
2017,03,15,09,36,0.00
2017,03,15,09,37,1.10
2017,03,15,09,38,1.20
2017,03,15,09,39,0.30
2017,03,15,09,40,0.10
2017,03,15,09,41,0.20
2017,03,15,09,42,0.10
2017,03,15,09,43,0.20
2017,03,15,09,44,1.70
2017,03,15,09,45,3.80
2017,03,15,09,46,3.50
2017,03,15,09,47,5.90
2017,03,15,09,48,5.60
2017,03,15,09,49,2.20
2017,03,15,09,50,1.30
2017,03,15,09,51,2.10
2017,03,15,09,52,1.60
2017,03,15,09,53,0.80
2017,03,15,09,54,0.00
2017,03,15,09,55,0.00
2017,03,15,09,56,0.90
2017,03,15,09,57,1.80
2017,03,15,09,58,0.20
2017,03,15,09,59,0.00
2017,03,15,10,00,0.00
2017,03,15,10,01,0.10
2017,03,15,10,02,0.30
2017,03,15,10,03,0.00
2017,03,15,10,04,0.10
2017,03,15,10,05,0.00
2017,03,15,10,06,0.10
2017,03,15,10,07,0.70
2017,03,15,10,08,0.00
2017,03,15,10,09,0.00
2017,03,15,10,10,0.00
2017,03,15,10,11,0.10
2017,03,15,10,12,0.00
2017,03,15,10,13,1.20
2017,03,15,10,14,1.30
2017,03,15,10,15,1.80
2017,03,15,10,16,2.30
2017,03,15,10,17,0.40
2017,03,15,10,18,0.20
2017,03,15,10,19,0.20
2017,03,15,10,20,0.00
2017,03,15,10,21,0.00
2017,03,15,10,22,0.00
2017,03,15,10,23,0.00
2017,03,15,10,24,0.10
2017,03,15,10,25,0.10
2017,03,15,10,26,0.00
2017,03,15,10,27,0.00
2017,03,15,10,28,0.00
2017,03,15,10,29,0.00
2017,03,15,10,30,0.00
2017,03,15,10,31,0.00
2017,03,15,10,32,0.00
2017,03,15,10,33,0.80
2017,03,15,10,34,2.40
2017,03,15,10,35,4.60
2017,03,15,10,36,3.80
2017,03,15,10,37,2.40
2017,03,15,10,38,1.30
2017,03,15,10,39,0.70
2017,03,15,10,40,0.10
2017,03,15,10,41,0.00
2017,03,15,10,42,0.00
2017,03,15,10,43,0.80
2017,03,15,10,44,3.40
2017,03,15,10,45,1.20
2017,03,15,10,46,0.60
2017,03,15,10,47,2.70
2017,03,15,10,48,4.40
2017,03,15,10,49,3.50
2017,03,15,10,50,3.40
2017,03,15,10,51,3.70
2017,03,15,10,52,4.10
2017,03,15,10,53,3.60
2017,03,15,10,54,5.60
2017,03,15,10,55,5.40
2017,03,15,10,56,2.50
2017,03,15,10,57,0.90
2017,03,15,10,58,0.70
2017,03,15,10,59,3.70
2017,03,15,11,00,4.30
2017,03,15,11,01,5.00
2017,03,15,11,02,3.10
2017,03,15,11,03,2.40
2017,03,15,11,04,2.90
2017,03,15,11,05,4.70
2017,03,15,11,06,2.10
2017,03,15,11,07,5.40
2017,03,15,11,08,5.00
2017,03,15,11,09,4.90
2017,03,15,11,10,5.40
2017,03,15,11,11,2.80
2017,03,15,11,12,3.70
2017,03,15,11,13,4.70
2017,03,15,11,14,3.80
2017,03,15,11,15,3.40
2017,03,15,11,16,3.10
2017,03,15,11,17,5.20
2017,03,15,11,18,1.70
2017,03,15,11,19,0.70
2017,03,15,11,20,2.40
2017,03,15,11,21,1.60
2017,03,15,11,22,3.40
2017,03,15,11,23,3.90
2017,03,15,11,24,3.00
2017,03,15,11,25,3.20
2017,03,15,11,26,0.60
2017,03,15,11,27,3.70
2017,03,15,11,28,4.80
2017,03,15,11,29,3.20
2017,03,15,11,30,2.10
2017,03,15,11,31,0.30
2017,03,15,11,32,0.70
2017,03,15,11,33,0.00
2017,03,15,11,34,1.10
2017,03,15,11,35,1.80
2017,03,15,11,36,1.30
2017,03,15,11,37,0.60
2017,03,15,11,38,1.10
2017,03,15,11,39,1.60
2017,03,15,11,40,3.20
2017,03,15,11,41,2.10
2017,03,15,11,42,1.20
2017,03,15,11,43,0.10
2017,03,15,11,44,0.00
2017,03,15,11,45,0.90
2017,03,15,11,46,1.80
2017,03,15,11,47,1.50
2017,03,15,11,48,0.10
2017,03,15,11,49,0.00
2017,03,15,11,50,0.40
2017,03,15,11,51,3.20
2017,03,15,11,52,3.60
2017,03,15,11,53,3.10
2017,03,15,11,54,0.80
2017,03,15,11,55,1.60
2017,03,15,11,56,4.80
2017,03,15,11,57,1.60
2017,03,15,11,58,1.90
2017,03,15,11,59,0.70
2017,03,15,12,00,0.80
2017,03,15,12,01,0.70
2017,03,15,12,02,4.30
2017,03,15,12,03,5.20
2017,03,15,12,04,5.60
2017,03,15,12,05,5.40
2017,03,15,12,06,4.80
2017,03,15,12,07,3.90
2017,03,15,12,08,4.10
2017,03,15,12,09,3.20
2017,03,15,12,10,1.80
2017,03,15,12,11,2.90
2017,03,15,12,12,4.30
2017,03,15,12,13,4.10
2017,03,15,12,14,4.60
2017,03,15,12,15,5.30
2017,03,15,12,16,5.10
2017,03,15,12,17,1.60
2017,03,15,12,18,0.30
2017,03,15,12,19,4.10
2017,03,15,12,20,5.20
2017,03,15,12,21,4.50
2017,03,15,12,22,3.00
2017,03,15,12,23,0.90
2017,03,15,12,24,2.20
2017,03,15,12,25,2.00
2017,03,15,12,26,3.00
2017,03,15,12,27,4.10
2017,03,15,12,28,3.00
2017,03,15,12,29,2.80
2017,03,15,12,30,0.00
2017,03,15,12,31,0.10
2017,03,15,12,32,1.10
2017,03,15,12,33,3.90
2017,03,15,12,34,5.00
2017,03,15,12,35,2.30
2017,03,15,12,36,2.20
2017,03,15,12,37,1.90
2017,03,15,12,38,6.20
2017,03,15,12,39,7.20
2017,03,15,12,40,9.10
2017,03,15,12,41,10.80
2017,03,15,12,42,7.10
2017,03,15,12,43,6.10
2017,03,15,12,44,6.50
2017,03,15,12,45,8.10
2017,03,15,12,46,7.20
2017,03,15,12,47,7.10
2017,03,15,12,48,8.20
2017,03,15,12,49,4.20
2017,03,15,12,50,1.70
2017,03,15,12,51,2.90
2017,03,15,12,52,3.20
2017,03,15,12,53,2.70
2017,03,15,12,54,2.30
2017,03,15,12,55,3.40
2017,03,15,12,56,3.40
2017,03,15,12,57,2.80
2017,03,15,12,58,1.30
2017,03,15,12,59,5.90
2017,03,15,13,00,3.10
2017,03,15,13,01,1.00
2017,03,15,13,02,1.50
2017,03,15,13,03,3.80
2017,03,15,13,04,2.30
2017,03,15,13,05,4.50
2017,03,15,13,06,3.00
2017,03,15,13,07,1.80
2017,03,15,13,08,1.80
2017,03,15,13,09,3.30
2017,03,15,13,10,3.20
2017,03,15,13,11,3.00
2017,03,15,13,12,1.30
2017,03,15,13,13,3.20
2017,03,15,13,14,2.80
2017,03,15,13,15,2.20
2017,03,15,13,16,3.80
2017,03,15,13,17,3.10
2017,03,15,13,18,2.00
2017,03,15,13,19,3.30
2017,03,15,13,20,4.20
2017,03,15,13,21,3.00
2017,03,15,13,22,3.60
2017,03,15,13,23,1.10
2017,03,15,13,24,3.50
2017,03,15,13,25,3.70
2017,03,15,13,26,4.50
2017,03,15,13,27,4.40
2017,03,15,13,28,4.00
2017,03,15,13,29,2.40
2017,03,15,13,30,2.50
2017,03,15,13,31,7.30
2017,03,15,13,32,4.30
2017,03,15,13,33,3.40
2017,03,15,13,34,4.40
2017,03,15,13,35,8.10
2017,03,15,13,36,7.70
2017,03,15,13,37,7.40
2017,03,15,13,38,4.00
2017,03,15,13,39,5.50
2017,03,15,13,40,1.30
2017,03,15,13,41,0.80
2017,03,15,13,42,4.00
2017,03,15,13,43,4.20
2017,03,15,13,44,3.70
2017,03,15,13,45,3.70
2017,03,15,13,46,1.30
2017,03,15,13,47,2.90
2017,03,15,13,48,2.80
2017,03,15,13,49,2.90
2017,03,15,13,50,1.60
2017,03,15,13,51,1.70
2017,03,15,13,52,4.10
2017,03,15,13,53,4.90
2017,03,15,13,54,2.80
2017,03,15,13,55,2.10
2017,03,15,13,56,3.10
2017,03,15,13,57,4.90
2017,03,15,13,58,3.30
2017,03,15,13,59,3.40
2017,03,15,14,00,2.80
2017,03,15,14,01,5.50
2017,03,15,14,02,3.70
2017,03,15,14,03,4.10
2017,03,15,14,04,4.60
2017,03,15,14,05,3.00
2017,03,15,14,06,6.60
2017,03,15,14,07,4.70
2017,03,15,14,08,4.80
2017,03,15,14,09,4.00
2017,03,15,14,10,5.20
2017,03,15,14,11,9.40
2017,03,15,14,12,7.70
2017,03,15,14,13,5.60
2017,03,15,14,14,4.40
2017,03,15,14,15,4.10
2017,03,15,14,16,4.70
2017,03,15,14,17,3.50
2017,03,15,14,18,3.90
2017,03,15,14,19,3.50
2017,03,15,14,20,6.50
2017,03,15,14,21,8.30
2017,03,15,14,22,9.30
2017,03,15,14,23,6.80
2017,03,15,14,24,5.50
2017,03,15,14,25,4.30
2017,03,15,14,26,7.00
2017,03,15,14,27,8.30
2017,03,15,14,28,9.60
2017,03,15,14,29,6.80
2017,03,15,14,30,2.90
2017,03,15,14,31,4.80
2017,03,15,14,32,3.20
2017,03,15,14,33,3.30
2017,03,15,14,34,4.20
2017,03,15,14,35,5.80
2017,03,15,14,36,5.60
2017,03,15,14,37,6.00
2017,03,15,14,38,3.40
2017,03,15,14,39,2.90
2017,03,15,14,40,4.50
2017,03,15,14,41,3.30
2017,03,15,14,42,4.50
2017,03,15,14,43,4.90
2017,03,15,14,44,3.70
2017,03,15,14,45,3.10
2017,03,15,14,46,6.70
2017,03,15,14,47,6.20
2017,03,15,14,48,5.80
2017,03,15,14,49,6.60
2017,03,15,14,50,3.70
2017,03,15,14,51,5.80
2017,03,15,14,52,7.70
2017,03,15,14,53,6.60
2017,03,15,14,54,6.10
2017,03,15,14,55,6.00
2017,03,15,14,56,8.10
2017,03,15,14,57,5.90
2017,03,15,14,58,7.20
2017,03,15,14,59,4.50
2017,03,15,15,00,7.50
2017,03,15,15,01,5.40
2017,03,15,15,02,6.70
2017,03,15,15,03,6.70
2017,03,15,15,04,4.90
2017,03,15,15,05,2.80
2017,03,15,15,06,2.60
2017,03,15,15,07,0.60
2017,03,15,15,08,4.10
2017,03,15,15,09,4.80
2017,03,15,15,10,6.40
2017,03,15,15,11,5.90
2017,03,15,15,12,3.20
2017,03,15,15,13,3.30
2017,03,15,15,14,2.60
2017,03,15,15,15,3.40
2017,03,15,15,16,2.90
2017,03,15,15,17,2.90
2017,03,15,15,18,0.70
2017,03,15,15,19,0.00
2017,03,15,15,20,0.90
2017,03,15,15,21,2.70
2017,03,15,15,22,3.10
2017,03,15,15,23,3.10
2017,03,15,15,24,2.40
2017,03,15,15,25,0.50
2017,03,15,15,26,2.90
2017,03,15,15,27,6.30
2017,03,15,15,28,4.20
2017,03,15,15,29,1.80
2017,03,15,15,30,0.40
2017,03,15,15,31,1.30
2017,03,15,15,32,2.70
2017,03,15,15,33,5.20
2017,03,15,15,34,2.70
2017,03,15,15,35,2.80
2017,03,15,15,36,2.00
2017,03,15,15,37,3.20
2017,03,15,15,38,2.40
2017,03,15,15,39,2.20
2017,03,15,15,40,2.80
2017,03,15,15,41,2.20
2017,03,15,15,42,2.80
2017,03,15,15,43,3.50
2017,03,15,15,44,2.80
2017,03,15,15,45,3.20
2017,03,15,15,46,2.20
2017,03,15,15,47,3.10
2017,03,15,15,48,4.10
2017,03,15,15,49,3.00
2017,03,15,15,50,3.00
2017,03,15,15,51,3.30
2017,03,15,15,52,4.20
2017,03,15,15,53,2.60
2017,03,15,15,54,2.30
2017,03,15,15,55,3.40
2017,03,15,15,56,2.60
2017,03,15,15,57,3.20
2017,03,15,15,58,3.90
2017,03,15,15,59,5.70
2017,03,15,16,00,6.00
2017,03,15,16,01,5.10
2017,03,15,16,02,6.30
2017,03,15,16,03,5.20
2017,03,15,16,04,5.40
2017,03,15,16,05,5.60
2017,03,15,16,06,4.70
2017,03,15,16,07,4.70
2017,03,15,16,08,4.10
2017,03,15,16,09,4.70
2017,03,15,16,10,4.00
2017,03,15,16,11,4.70
2017,03,15,16,12,5.20
2017,03,15,16,13,6.40
2017,03,15,16,14,2.30
2017,03,15,16,15,3.70
2017,03,15,16,16,2.40
2017,03,15,16,17,2.30
2017,03,15,16,18,2.60
2017,03,15,16,19,2.30
2017,03,15,16,20,1.30
2017,03,15,16,21,2.10
2017,03,15,16,22,1.90
2017,03,15,16,23,5.30
2017,03,15,16,24,4.20
2017,03,15,16,25,2.90
2017,03,15,16,26,1.90
2017,03,15,16,27,2.10
2017,03,15,16,28,4.10
2017,03,15,16,29,3.50
2017,03,15,16,30,3.40
2017,03,15,16,31,1.50
2017,03,15,16,32,3.40
2017,03,15,16,33,4.00
2017,03,15,16,34,3.30
2017,03,15,16,35,0.90
2017,03,15,16,36,0.50
2017,03,15,16,37,0.10
2017,03,15,16,38,1.30
2017,03,15,16,39,0.30
2017,03,15,16,40,0.00
2017,03,15,16,41,0.00
2017,03,15,16,42,0.00
2017,03,15,16,43,0.00
2017,03,15,16,44,0.20
2017,03,15,16,45,0.00
2017,03,15,16,46,0.00
2017,03,15,16,47,0.00
2017,03,15,16,48,0.00
2017,03,15,16,49,0.00
2017,03,15,16,50,0.20
2017,03,15,16,51,0.00
2017,03,15,16,52,0.00
2017,03,15,16,53,1.10
2017,03,15,16,54,1.20
2017,03,15,16,55,2.40
2017,03,15,16,56,2.10
2017,03,15,16,57,1.70
2017,03,15,16,58,0.10
2017,03,15,16,59,1.30
2017,03,15,17,00,3.40
2017,03,15,17,01,3.90
2017,03,15,17,02,3.60
2017,03,15,17,03,2.30
2017,03,15,17,04,2.20
2017,03,15,17,05,0.60
2017,03,15,17,06,0.00
2017,03,15,17,07,0.00
2017,03,15,17,08,0.00
2017,03,15,17,09,0.00
2017,03,15,17,10,0.00
2017,03,15,17,11,0.00
2017,03,15,17,12,0.00
2017,03,15,17,13,0.00
2017,03,15,17,14,0.00
2017,03,15,17,15,0.00
2017,03,15,17,16,0.00
2017,03,15,17,17,0.00
2017,03,15,17,18,0.00
2017,03,15,17,19,0.00
2017,03,15,17,20,0.00
2017,03,15,17,21,0.00
2017,03,15,17,22,0.00
2017,03,15,17,23,0.00
2017,03,15,17,24,0.00
2017,03,15,17,25,0.00
2017,03,15,17,26,0.00
2017,03,15,17,27,0.00
2017,03,15,17,28,0.00
2017,03,15,17,29,0.00
2017,03,15,17,30,0.00
2017,03,15,17,31,0.00
2017,03,15,17,32,0.00
2017,03,15,17,33,0.00
2017,03,15,17,34,0.00
2017,03,15,17,35,0.00
2017,03,15,17,36,0.00
2017,03,15,17,37,0.00
2017,03,15,17,38,0.00
2017,03,15,17,39,0.00
2017,03,15,17,40,0.00
2017,03,15,17,41,0.00
2017,03,15,17,42,0.00
2017,03,15,17,43,0.00
2017,03,15,17,44,0.00
2017,03,15,17,45,0.00
2017,03,15,17,46,0.10
2017,03,15,17,47,2.50
2017,03,15,17,48,3.10
2017,03,15,17,49,3.00
2017,03,15,17,50,1.30
2017,03,15,17,51,0.90
2017,03,15,17,52,0.40
2017,03,15,17,53,0.10
2017,03,15,17,54,1.60
2017,03,15,17,55,0.20
2017,03,15,17,56,0.00
2017,03,15,17,57,0.00
2017,03,15,17,58,0.00
2017,03,15,17,59,0.00
2017,03,15,18,00,0.00
2017,03,15,18,01,0.00
2017,03,15,18,02,0.00
2017,03,15,18,03,0.00
2017,03,15,18,04,0.00
2017,03,15,18,05,0.00
2017,03,15,18,06,0.00